Regional Weather Roundup
Issued by NWS

Home | Current Version | Previous Version | Graphics & Text | Print | Product List | Glossary On
Versions: 1 2 3 4 5 6 7 8 9 10 11 12 13 14 15 16 17 18 19 20 21 22 23 24 25 26 27 28 29 30 31 32 33 34 35 36 37 38 39 40 41 42 43 44 45 46 47 48 49 50
000
ASUS43 KLMK 290002
RWRKY
KENTUCKY REGIONAL WEATHER ROUNDUP
NATIONAL WEATHER SERVICE LOUISVILLE KY
800 PM EDT SUN AUG 28 2016

NOTE "FAIR" INDICATES FEW OR NO CLOUDS BELOW 12,000 FEET
WITH NO SIGNIFICANT WEATHER AND/OR OBSTRUCTIONS TO VISIBILITY.

KYZ001>023-026-027-061>063-070>075-290100-
WESTERN AND SOUTH CENTRAL KENTUCKY

CITY           SKY/WX    TMP DP  RH WIND       PRES   REMARKS
PADUCAH        CLEAR     86  75  69 NE7       30.07R HX  95
HENDERSON      CLEAR     88  75  66 CALM      30.07S HX  97
OWENSBORO      PTCLDY    90  75  61 E6        30.09S HX 100
HOPKINSVILLE   CLEAR     86  76  73 NE7       30.08R HX  96
BOWLING GREEN  CLEAR     80  74  81 VRB3      30.10F
GLASGOW        MOCLDY    80  69  70 E20G26    30.14R
$$

KYZ024-025-028>034-038-045-046-053-290100-
NORTH CENTRAL KENTUCKY

CITY           SKY/WX    TMP DP  RH WIND       PRES   REMARKS
LOUISVILLE/SDF CLOUDY    79  71  76 SE8       30.14R
LOUISVILLE/LOU MOCLDY    79  71  76 E6        30.15R
FORT KNOX      PTCLDY    79  69  73 E13       30.12R
$$

KYZ035>037-039>044-047>052-055>060-089>105-290100-
NORTHEAST KENTUCKY

CITY           SKY/WX    TMP DP  RH WIND       PRES   REMARKS
LEXINGTON      CLOUDY    76  66  71 CALM      30.16F
COVINGTON      TSTM      72  70  93 E28       30.19R
FRANKFORT      CLOUDY    75  70  84 NW5       30.15F
$$

KYZ054-064>069-076>088-106>120-290100-
SOUTHEAST KENTUCKY

CITY           SKY/WX    TMP DP  RH WIND       PRES   REMARKS
JACKSON        CLOUDY    74  69  85 VRB6      30.18F
LONDON         CLOUDY    72  66  81 NE6       30.18F
SOMERSET       CLOUDY    70  70 100 CALM      30.18F
MIDDLESBORO    CLOUDY    74  71  88 NW5       30.18R
MONTICELLO     LGT RAIN N/A N/A N/A CALM      30.18F
$$





USA.gov is the U.S. government's official web portal to all federal, state and local government web resources and services.